Epoch 2020 Apr. 21.0 TT = JDT 2458960.5 T 2020 May 4.95215 TT Rudenko q 1.6151770 (2000.0) P Q z +0.0002129 Peri. 92.99178 -0.50993580 -0.40637373 +/-0.0000002 Node 64.37782 -0.16274447 -0.81988504 e 0.9996562 Incl. 57.23087 +0.84467729 -0.40329754 From 6758 observations 2017 Sept. 15-2021 Apr. 5, mean residual 1".0.
m1 = -4.5 + 5 logΔ + 20.0 log r [ ,-820] ( 〜2018年 2月 4日) m1 = 5.2 + 5 logΔ + 9.5 log r(t + 15) [-820, 0] (2018年 2月 4日〜2020年 5月 4日) m1 = 4.5 + 5 logΔ + 13.0 log r(t + 15) [ 0, ] (2020年 5月 4日〜 )